This demonstration page uses our WeatherBlox Daily Observations layout. Learn more.

Left ArrowRight Arrow

Hourly Observations for July 1, 2018

Temp ( °F °C ) Dew Point ( °F °C ) Humidity (%) Winds ( mph kmh ) Pressure ( in mb ) Visibility ( mi km ) Precip ( " mm )
12:53 am 00:53 Clear 80 26.7 62 16.7 54 54 SE 15 24 29.70 1006 10 16 0.00 0.00
1:53 am 01:53 Clear 79 26.1 60 15.6 52 52 SSE 10 17 29.70 1006 10 16 0.00 0.00
2:53 am 02:53 Clear 76 24.4 59 15 56 56 SE 9 15 29.70 1006 10 16 0.00 0.00
3:53 am 03:53 Clear 74 23.3 55 12.8 52 52 SSE 8 13 29.70 1006 10 16 0.00 0.00
4:53 am 04:53 Clear 73 22.8 58 14.4 59 59 S 9 15 29.70 1006 10 16 0.00 0.00
5:53 am 05:53 Clear 70 21.1 58 14.4 66 66 SSE 7 11 29.72 1007 10 16 0.00 0.00
6:53 am 06:53 Sunny 68 20 56 13.3 65 65 SSW 7 11 29.73 1007 10 16 0.00 0.00
7:53 am 07:53 Sunny 71 21.7 57 13.9 61 61 S 5 7 29.76 1008 10 16 0.00 0.00
8:53 am 08:53 Sunny 80 26.7 52 11.1 38 38 SSW 5 7 29.77 1008 10 16 0.00 0.00
9:53 am 09:53 Sunny 85 29.4 51 10.6 31 31 SSW 9 15 29.78 1008 10 16 0.00 0.00
10:53 am 10:53 Sunny 89 31.7 49 9.4 25 25 W 7 11 29.79 1009 10 16 0.00 0.00
11:53 am 11:53 Sunny 92 33.3 49 9.4 23 23 Calm 29.78 1009 10 16 0.00 0.00
12:53 pm 12:53 Sunny 96 35.6 48 8.9 19 19 NE 5 7 29.78 1009 10 16 0.00 0.00
1:53 pm 13:53 Sunny 98 36.7 48 8.9 18 18 ENE 3 6 29.77 1008 10 16 0.00 0.00
2:53 pm 14:53 Sunny 100 37.8 48 8.9 17 17 E 7 11 29.76 1008 10 16 0.00 0.00
3:53 pm 15:53 Sunny 100 37.8 48 8.9 17 17 VRB 5 7 29.74 1007 10 16 0.00 0.00
4:53 pm 16:53 Sunny 101 38.3 48 8.9 17 17 E 6 9 29.71 1006 10 16 0.00 0.00
5:53 pm 17:53 Sunny 100 37.8 47 8.3 16 16 VRB 3 6 29.71 1006 10 16 0.00 0.00
6:53 pm 18:53 Sunny 100 37.8 47 8.3 16 16 S 8 13 29.71 1006 10 16 0.00 0.00
7:53 pm 19:53 Sunny 99 37.2 47 8.3 17 17 SE 8 13 29.72 1006 10 16 0.00 0.00
8:53 pm 20:53 Sunny 95 35 45 7.2 18 18 SSE 12 19 29.72 1006 10 16 0.00 0.00
9:53 pm 21:53 Clear 91 32.8 51 10.6 26 26 N 8 13 29.75 1008 10 16 0.00 0.00
10:53 pm 22:53 Clear 87 30.6 54 12.2 32 32 ENE 6 9 29.80 1009 10 16 0.00 0.00
11:53 pm 23:53 Clear 87 30.6 64 17.8 46 46 SE 13 20 29.81 1009 10 16 0.00 0.00

Powered by AerisWeather